Location: Around the Lake Trail
(44.1406°N, 71.7029°W)
Time: 04:43:59
(UTC+00:00)

Daily predictions for brighter satellites

Satellite Brightness Start Highest point End
(mag) Time Altitude Azimuth Time Altitude Azimuth Time Altitude Azimuth
NOSS 2-3 (C) 3.2 00:02:59 10° SW 00:06:37 84° NW 00:10:38 10° NE
Resurs 1-3 3.6 00:03:00 10° SSE 00:07:20 88° E 00:11:44 10° NNW
Cosmos 2218 Rocket 4.3 00:03:52 10° N 00:10:05 50° ENE 00:16:14 10° SSE
IKONOS-2 4.5 00:05:53 10° NNE 00:10:06 66° ESE 00:14:16 10° S
Meteor 2-10 Rocket 4.5 00:05:16 10° SSW 00:10:08 51° WNW 00:15:02 10° N
NOSS 2-3 (D) 3.3 00:08:08 10° SW 00:11:47 81° NW 00:15:47 10° NE
ATLAS 3B R/B 3.8 00:07:13 10° SSE 00:12:13 21° ESE 00:17:27 10° ENE
Cosmos 1025 Rocket 3.3 00:08:23 10° N 00:12:38 50° ENE 00:16:53 10° SSE
BREEZE-M R/B 3.7 00:11:55 10° WNW 00:14:31 27° NNW 00:16:42 10° NE
Okean O Rocket 2.0 00:13:04 10° SE 00:17:11 44° ENE 00:21:20 10° N
USA 281 3.6 00:13:11 10° SE 00:19:26 48° ENE 00:25:42 10° NNW
NOSS 2-2 (E) 4.1 00:17:25 10° WSW 00:20:29 42° NW 00:23:31 10° NNE
Resurs 01 Rocket 1.8 00:18:27 10° SSE 00:22:43 51° ENE 00:27:01 10° N
Cosmos 1975 Rocket 3.7 00:20:25 10° N 00:24:27 36° ENE 00:28:04 12° SE
CARTOSAT-1 3.8 00:21:47 10° SSE 00:25:54 48° ENE 00:30:02 10° N
Cosmos 1656 Rocket 4.0 00:21:11 10° SSW 00:26:43 72° WNW 00:32:13 10° NNE
Cosmos 1302 Rocket 3.9 00:22:44 10° S 00:27:58 72° ESE 00:33:13 10° NNE
Cosmos 1346 Rocket 2.6 00:24:22 10° S 00:28:10 73° E 00:31:59 10° NNE
SJ-6B 3.8 00:25:55 10° S 00:29:44 49° W 00:33:37 10° NNW
Meteor 1-21 Rocket 4.3 00:24:08 10° N 00:30:04 72° E 00:35:58 10° SSE
Cosmos 1328 3.6 00:28:08 10° N 00:31:56 83° E 00:35:43 10° S
OAO 3 Rocket 4.4 00:28:46 10° WSW 00:32:55 28° S 00:35:52 16° SE
NOSS 2-2 (D) 3.9 00:31:42 10° SW 00:34:51 45° NW 00:37:54 10° NNE
SL-27 R/B 3.9 00:36:09 10° NNE 00:38:02 16° ENE 00:38:26 15° ENE
Cosmos 1782 Rocket 3.5 00:35:23 10° S 00:39:44 79° E 00:44:08 10° N
Cosmos 864 Rocket 4.5 00:34:22 10° N 00:40:38 85° E 00:46:54 10° S
Cosmos 1892 3.8 00:38:03 10° NNW 00:41:28 43° W 00:44:50 10° SSW
ATLAS 5 CENTAUR R/B 1.7 00:41:15 10° S 00:44:07 27° ESE 00:47:10 10° ENE
Cosmos 968 Rocket 4.2 00:40:50 10° NNW 00:45:48 53° WSW 00:50:45 10° S
USA 186 2.7 00:44:18 10° S 00:47:17 46° W 00:50:14 10° NNW
SPOT 5 3.9 00:45:36 20° ESE 00:48:33 34° ENE 00:53:17 10° N
CZ-4 R/B 3.1 00:46:01 10° SSW 00:49:35 32° W 00:53:08 10° NNW
Meteor 1-11 4.4 00:44:26 10° N 00:50:00 55° ENE 00:54:15 17° SSE
SL-4 R/B 3.4 00:47:13 10° W 00:50:33 31° NNW 00:53:43 10° NE
USA 129 2.3 00:50:53 10° N 00:53:34 60° WNW 00:54:47 22° SSW
Cosmos 1455 3.0 00:52:05 10° SSW 00:55:32 48° WNW 00:59:01 10° N
ERS-1 Rocket 4.1 00:56:20 21° E 00:58:05 26° ENE 01:02:13 10° N
Cosmos 1953 4.3 01:01:01 10° SW 01:04:21 29° WNW 01:07:44 10° NNW
Cosmos 1300 Rocket 3.9 01:01:58 10° SSW 01:06:17 68° W 01:10:40 10° N
MOS 1 4.3 01:02:44 22° SSE 01:06:31 65° ENE 01:12:10 10° N
In-Cosmos 22 Rocket 4.1 01:03:09 10° N 01:08:36 89° WSW 01:13:01 16° S
CSL-04 Rocket 4.3 01:04:28 10° S 01:09:54 57° W 01:15:20 10° NNW
Cosmos 2181 Rocket 4.4 01:06:05 10° SSW 01:12:11 64° W 01:18:25 10° N
SJ 16-02 2.2 01:09:53 10° NNW 01:14:02 45° WSW 01:17:18 15° S
Okean 2 Rocket 3.7 01:14:49 35° ESE 01:15:14 36° E 01:19:22 10° NNE
Cosmos 2297 Rocket 3.8 01:11:44 10° N 01:15:48 20° NE 01:17:48 17° ENE
NOSS 3-1 (A) 3.2 01:12:30 10° S 01:17:03 42° ESE 01:22:19 10° NE
IRS-1C Rocket 4.1 01:15:52 31° SE 01:18:17 62° ENE 01:23:30 10° N
Cosmos 2369 Rocket 3.7 01:13:34 10° SW 01:18:50 38° NW 01:24:05 10° NNE
Cosmos 371 Rocket 4.3 01:14:46 10° N 01:18:59 30° ENE 01:19:52 28° E
CZ-4C R/B 3.0 01:15:59 10° N 01:19:27 76° WNW 01:21:32 22° SSW
Cosmos 1992 Rocket 4.1 01:17:28 10° SSW 01:22:40 78° WNW 01:27:55 10° NNE
MetOp-B 4.1 01:23:41 33° SSE 01:26:07 74° ENE 01:31:29 10° N
Cosmos 2098 Rocket 3.8 01:21:48 10° SSW 01:27:10 60° W 01:31:33 10° N
Spot 2 Rocket 4.1 01:27:22 35° E 01:28:18 38° ENE 01:32:57 10° N
Sich 1 Rocket 3.6 01:30:20 52° ESE 01:30:40 53° E 01:35:00 10° NNE
Okean-O 3.0 01:28:34 26° S 01:30:53 61° WSW 01:35:15 10° NNW
Terra 2.3 01:30:44 40° E 01:31:20 41° ENE 01:35:47 10° N
USA 234 4.5 01:28:21 15° S 01:32:52 32° SW 01:38:38 10° WNW
NOSS 3-1 (C) 3.5 01:35:39 10° SW 01:40:29 61° NW 01:46:19 10° NNE
IRS-1A Rocket 4.3 01:38:01 37° SSE 01:40:32 84° ENE 01:46:28 10° NNW
USA 245 4.0 01:45:21 49° SSE 01:46:53 75° ENE 01:51:52 10° N
Ariane Rocket 3.0 01:47:05 53° E 01:47:40 57° ENE 01:52:37 10° N
Cosmos 1241 Rocket 4.5 01:41:37 10° NNW 01:47:54 72° NE 01:49:45 47° ESE
Okean 1 Rocket 3.6 01:52:36 46° NE 01:52:36 46° NE 01:56:05 10° NNE
Landsat 4 4.0 01:53:50 57° WNW 01:53:50 57° WNW 01:56:54 10° NNW
Okean O Rocket 4.1 01:50:41 10° SW 01:53:41 18° W 01:56:42 10° NW
SPOT 3 Rocket 3.6 01:53:53 56° E 01:54:24 59° ENE 01:59:31 10° N
Nadezhda 3 Rocket 4.3 01:50:00 10° SSW 01:56:03 64° W 02:02:12 10° N
Cosmos 1486 Rocket 4.1 01:53:17 10° NNW 01:58:29 70° WSW 01:59:33 54° SSW
Resurs 01 Rocket 4.3 01:56:44 10° SW 01:59:27 16° W 02:02:12 10° NW
ATLAS 3B R/B 2.8 01:54:57 10° SW 02:02:00 84° NW 02:09:37 10° NE
USA 281 4.4 01:59:34 17° SSW 02:04:02 36° WSW 02:10:01 10° NW
Cosmos 1605 Rocket 4.0 02:03:43 10° N 02:10:05 63° E 02:10:51 58° ESE
Iridium 4 Rocket 3.6 02:09:52 63° SSW 02:10:47 85° W 02:16:30 10° N
Cosmos 1932 4.3 02:06:49 10° NW 02:13:06 85° ENE 02:13:59 67° SE
SPOT 5 4.4 02:24:45 28° SW 02:26:29 35° W 02:31:20 10° NNW
ATLAS 5 CENTAUR R/B 3.3 02:25:10 10° W 02:28:00 24° NW 02:31:06 10° NNE
SL-4 R/B 4.0 02:27:08 10° NW 02:29:13 21° NNW 02:29:13 21° NNW
Cosmos 2227 Rocket 3.1 02:26:06 10° N 02:31:09 36° NE 02:31:09 36° NE
ERS-1 Rocket 3.9 02:36:16 40° WSW 02:36:38 40° W 02:41:21 10° NNW
Cosmos 1727 Rocket 4.3 02:39:33 51° ENE 02:39:33 51° ENE 02:44:48 10° NNE
ARGOS Delta rocket 4.2 02:42:13 70° WNW 02:42:13 70° WNW 02:47:15 10° NNW
Cosmos 1697 Rocket 4.3 02:48:52 24° NE 02:48:52 24° NE 02:51:13 10° NE
CZ-4C R/B 3.5 02:42:48 10° NNW 02:49:36 48° NE 02:51:18 42° ENE
ARIANE 5 R/B 4.4 02:57:06 27° NNE 02:57:06 27° NNE 02:59:23 10° N
Cosmos 2297 Rocket 2.5 02:54:50 10° NNW 02:59:36 63° NW 02:59:36 63° NW
COSMOS 2455 3.0 02:55:34 10° NNW 03:00:56 66° N 03:00:56 66° N
Cosmos 2219 4.3 03:02:35 10° NNW 03:06:58 37° NNE 03:06:58 37° NNE
Terra 3.7 03:09:26 22° W 03:09:26 22° W 03:12:47 10° NW
USA 229 DEB 3.7 03:16:02 69° N 03:16:02 69° N 03:22:08 10° NE
USA 229 3.7 03:16:14 68° N 03:16:14 68° N 03:22:16 10° NE
CENTAUR R/B 3.8 03:18:21 10° NNW 03:26:15 50° NE 03:28:19 43° E
Cosmos 2263 Rocket 3.4 03:30:03 10° NNW 03:34:00 36° NNE 03:34:00 36° NNE
Cosmos 1459 Rocket 4.4 03:34:26 10° N 03:39:06 55° NNW 03:39:06 55° NNW
ATLAS CENTAUR R/B 4.3 03:36:57 10° NNW 03:37:26 13° NNW 03:37:26 13° NNW
Cosmos 2227 Rocket 3.9 04:10:11 10° NW 04:12:58 26° WNW 04:12:58 26° WNW
Cosmos 1980 Rocket 3.6 04:21:01 35° NNE 04:21:01 35° NNE 04:24:13 10° NNE
USA 267 4.4 04:17:20 24° ENE 04:20:32 38° NNE 04:26:29 10° NW
Cosmos 1697 Rocket 4.3 04:30:31 30° NW 04:30:31 30° NW 04:34:57 10° N
NOSS 3-2 (A) 4.1 04:29:44 10° NW 04:36:40 74° N 04:36:40 74° N
CZ-4C R/B 3.7 04:31:09 10° NW 04:36:23 44° WNW 04:36:23 44° WNW
Cosmos 2333 Rocket 4.1 05:10:52 21° ENE 05:10:52 21° ENE 05:13:10 10° NE
Cosmos 2360 Rocket 4.0 05:15:07 25° ENE 05:15:07 25° ENE 05:17:43 10° NE
CENTAUR R/B 3.7 05:09:04 10° NW 05:15:27 48° W 05:15:27 48° W
Cosmos 2263 Rocket 4.4 05:14:18 10° NW 05:15:40 16° NW 05:15:40 16° NW
Cosmos 2322 Rocket 3.6 05:24:53 33° NE 05:24:53 33° NE 05:27:58 10° NNE
USA 215 3.6 05:22:47 10° NE 05:28:03 61° NE 05:28:03 61° NE
Cosmos 2219 Rocket 4.1 05:32:27 22° ENE 05:32:27 22° ENE 05:35:04 10° NE
SL-16 R/B 3.3 05:40:46 41° N 05:40:46 41° N 05:44:30 10° NNE
NOSS 3-2 (C) 4.1 05:42:16 10° NW 05:48:47 69° WNW 05:48:47 69° WNW
ADEOS II 4.2 05:52:44 10° NE 05:55:52 17° E 05:55:52 17° E
USA 267 3.6 06:04:36 57° NW 06:04:36 57° NW 06:09:41 10° NW
Cosmos 1980 Rocket 4.5 06:02:44 14° NW 06:03:39 14° NW 06:06:36 10° N
Cosmos 1844 Rocket 4.3 06:00:32 10° NNW 06:02:56 26° NW 06:02:56 26° NW
Cosmos 1634 Rocket 4.3 06:00:23 10° N 06:06:03 64° NE 06:06:03 64° NE
CZ-2D R/B 3.5 06:04:11 10° NNE 06:08:14 33° ENE 06:08:14 33° ENE
Timation 2 Rocket 4.5 06:02:42 10° NNW 06:07:46 55° NNW 06:07:46 55° NNW
SL-16 R/B 4.3 06:06:47 14° ESE 06:10:53 27° ENE 06:15:58 10° N
Cosmos 2221 4.4 06:30:11 27° NNE 06:30:11 27° NNE 06:32:12 10° N
COSMOS 2428 3.7 06:28:39 37° E 06:28:39 37° E 06:33:26 10° NE
CZ-2C R/B 3.2 06:35:48 54° E 06:36:03 54° ENE 06:41:18 10° N
Cosmos 2237 Rocket 4.2 06:34:52 16° ESE 06:36:08 17° E 06:39:41 10° ENE
Lacrosse 4 Rocket 4.2 06:38:47 11° NNW 06:38:47 11° NNW 06:39:15 10° NNW
BlueWalker 3 4.3 06:41:27 22° NNE 06:41:27 22° NNE 06:43:51 10° ENE
Lacrosse 5 2.6 06:42:19 49° N 06:42:19 49° N 06:46:27 10° NE
CZ-2C R/B 4.0 06:37:36 10° NNE 06:42:26 40° E 06:42:29 40° E
Cosmos 44 Rocket 3.9 06:44:53 57° NNE 06:44:53 57° NNE 06:49:01 10° NE
Cosmos 2322 4.0 06:44:17 62° E 06:44:17 62° E 06:49:32 10° NNE
NPP 3.8 06:39:21 10° NNE 06:44:02 68° NNE 06:44:02 68° NNE
ALOS 4.1 06:41:34 10° NE 06:45:15 23° E 06:45:36 23° E
Cosmos 489 Rocket 4.4 06:41:33 10° NNW 06:47:25 77° NW 06:47:25 77° NW
USA 238 DEB 4.1 06:41:54 10° NW 06:48:03 55° W 06:48:03 55° W
USA 238 4.1 06:42:00 10° NW 06:48:16 56° W 06:48:16 56° W
Resurs 1-4 Rocket 2.3 06:44:22 10° NNE 06:49:06 70° NE 06:49:06 70° NE
Cosmos 2333 Rocket 2.9 06:52:51 42° NW 06:52:51 42° NW 06:57:46 10° NNE
Cosmos 2360 Rocket 3.2 06:56:51 35° NW 06:56:51 35° NW 07:01:42 10° N
Cosmos 2279 Rocket 3.9 06:50:32 10° N 06:56:36 76° WNW 06:56:36 76° WNW
Cosmos 1536 4.5 06:54:07 10° N 06:56:55 31° NE 06:56:55 31° NE
Nadezhda 4 Rocket 4.3 06:59:27 49° SE 07:00:44 59° E 07:06:44 10° NNE
Cosmos 972 Rocket 4.2 07:02:51 66° NW 07:02:51 66° NW 07:07:35 10° NNE
IRIDIUM 106 4.4 07:00:23 10° N 07:05:06 72° NNW 07:05:06 72° NNW
Cosmos 2322 Rocket 3.7 07:06:40 24° NW 07:06:53 24° NW 07:11:24 10° N
Cosmos 1726 4.5 07:04:45 10° N 07:05:49 18° NNE 07:05:49 18° NNE
Cosmos 2278 Rocket 3.3 07:02:47 10° NNW 07:08:12 42° ENE 07:13:33 10° SE
Cosmos 1538 Rocket 4.2 07:08:15 61° ESE 07:08:31 62° ESE 07:13:48 10° NNE
IDEFIX/ARIANE 42P 2.9 07:04:17 10° N 07:08:47 53° NW 07:08:47 53° NW
USA 215 4.3 07:05:59 10° NE 07:11:52 37° NNW 07:15:22 22° WNW
GP-B 3.9 07:08:00 10° NNE 07:12:15 45° E 07:12:34 44° E
Cosmos 2219 Rocket 2.6 07:14:08 47° WNW 07:14:08 47° WNW 07:19:31 10° NNE
Okean 1 4.5 07:15:08 38° ENE 07:15:08 38° ENE 07:18:11 10° NNE
COBE Rocket 4.1 07:13:25 10° N 07:17:20 55° NNW 07:17:20 55° NNW
Gbstr 26 Del rocket 3.4 07:20:36 55° NNE 07:20:36 55° NNE 07:23:47 10° NE
MSX 4.0 07:17:19 10° N 07:22:57 55° WNW 07:23:18 54° W
SL-16 R/B 4.3 07:22:36 13° WNW 07:24:04 14° NW 07:26:54 10° N
Cosmos 1461 4.1 07:22:18 10° NNW 07:25:54 37° NE 07:29:28 10° ESE
NOSS 3-4 (A) 4.1 07:26:04 35° WNW 07:27:09 38° NW 07:32:48 10° NNE
NOSS 3-4 (C) 4.1 07:26:07 35° WNW 07:27:11 38° NW 07:32:51 10° NNE
RESURS DK-1 2.7 07:28:45 61° ENE 07:28:45 61° ENE 07:32:20 10° NNE
CZ-2C R/B 4.4 07:26:48 10° NE 07:31:02 25° E 07:35:13 10° SSE
Cosmos 1151 Rocket 4.1 07:31:09 32° SE 07:32:20 39° E 07:36:22 10° NNE
BREEZE-M DEB (TANK) 4.0 07:31:47 34° NNW 07:32:48 44° N 07:40:36 10° E
ADEOS II 2.0 07:31:02 10° N 07:36:14 63° WNW 07:36:45 60° WSW
FENGYUN 3A 3.6 07:35:25 10° N 07:40:50 68° WNW 07:41:48 56° SW
Cosmos 1092 Rocket 4.2 07:40:20 27° S 07:43:48 67° E 07:49:54 10° NNE
Cosmos 923 Rocket 4.5 07:43:00 34° SSE 07:45:01 55° ESE 07:50:10 10° NNE
Cosmos 1408 Rocket 3.9 07:41:23 10° NNW 07:44:54 49° NW 07:44:54 49° NW
NOSS 2-2 (E) 4.2 07:41:54 10° NW 07:46:30 78° NE 07:53:04 10° SE
CZ-2D R/B 2.9 07:44:14 10° N 07:49:01 34° WNW 07:49:32 34° WNW
EO 1 Delta rocket 4.1 07:44:44 10° NNE 07:49:23 64° E 07:51:24 33° SSE
Cosmos 2026 Rocket 4.1 07:47:38 26° S 07:51:20 77° E 07:57:42 10° N
Envisat 3.8 07:46:25 10° NNE 07:51:20 48° E 07:54:41 19° SSE
SL-16 R/B 2.6 07:51:52 37° SSW 07:54:04 56° WSW 08:00:11 10° NNW
NOSS 2-2 (D) 4.2 07:56:32 10° NNW 08:01:02 75° NE 08:07:28 10° SE
Cosmos 1805 Rocket 3.4 07:57:56 10° NNW 08:02:14 64° W 08:02:57 54° SW
Cosmos 1500 Rocket 3.7 07:58:28 10° NNW 08:02:48 51° W 08:03:03 50° WSW
UNK 3.7 08:02:07 47° SSW 08:03:06 59° W 08:07:39 10° NNW
Meteor 1-27 Rocket 3.7 08:04:14 35° SSW 08:06:44 68° WNW 08:12:26 10° N
Cosmos 1943 Rocket 2.5 08:02:07 10° NNW 08:07:47 70° ENE 08:13:26 10° SSE
CZ-4 R/B 3.8 08:03:43 10° NNE 08:08:29 83° ESE 08:10:51 30° S
Thor Agena Rocket 4.3 08:03:53 10° NNE 08:08:46 49° E 08:13:17 12° S
Meteor 2-4 Rocket 4.2 08:06:32 12° S 08:11:25 57° E 08:16:48 10° NNE
Cosmos 1627 Rocket 4.5 08:08:18 25° SSW 08:12:13 77° W 08:18:37 10° N
COSMOS 2428 3.5 08:10:38 29° W 08:12:28 35° NW 08:17:42 10° N
Cosmos 1733 2.9 08:11:43 10° NNW 08:15:17 61° W 08:15:45 55° SW
NOAA 11 4.4 08:10:15 10° NNE 08:15:42 68° ESE 08:20:31 13° S
CZ-2C R/B 4.0 08:17:17 21° W 08:17:17 21° W 08:20:43 10° NW
YAOGAN 6 3.2 08:14:43 10° NNE 08:17:53 47° E 08:19:45 21° SSE
Cosmos 2237 Rocket 2.2 08:16:42 31° SW 08:19:30 72° WNW 08:25:12 10° NNE
BlueWalker 3 2.3 08:15:55 11° NW 08:19:31 64° NNE 08:23:18 10° ESE
Cosmos 1980 3.7 08:18:03 31° SW 08:20:48 66° WNW 08:26:27 10° NNE
Meteor 1-11 Rocket 4.2 08:16:49 10° NNW 08:21:53 37° W 08:23:44 29° SW
CZ-2C R/B 4.1 08:17:48 10° N 08:22:06 28° WNW 08:23:30 25° W
Cosmos 1867 4.0 08:17:30 10° NW 08:22:31 37° WSW 08:27:29 10° S
ALOS 2.9 08:18:17 10° N 08:22:36 39° WNW 08:23:56 31° WSW
Cosmos 2112 Rocket 4.1 08:20:47 20° SSW 08:24:32 77° ESE 08:29:54 10° NNE
Lacrosse 5 3.8 08:21:30 11° WNW 08:25:20 22° NNW 08:29:19 10° NE
ATLAS 2AS CENTAUR R/B 3.4 08:19:52 14° SSW 08:26:16 56° ESE 08:33:16 10° NE
Sich 1 3.6 08:23:45 10° NNW 08:27:33 33° W 08:28:05 32° WSW
Resurs 1-4 Rocket 3.9 08:25:44 10° NNW 08:28:47 16° WNW 08:30:10 14° WNW
DMSP B5D2-2 4.4 08:25:12 10° SSE 08:30:21 68° ENE 08:35:31 10° N
Cosmos 1340 Rocket 2.6 08:28:57 26° SSW 08:30:59 80° W 08:34:52 10° N
Cosmos 1328 Rocket 3.6 08:31:29 13° S 08:35:28 83° E 08:39:55 10° N
Cosmos 1805 3.0 08:32:08 10° NNW 08:35:49 66° W 08:39:20 11° S
Cosmos 2344 4.3 08:27:28 10° NW 08:36:06 59° WSW 08:48:09 10° SSE
Cosmos 1743 Rocket 4.4 08:33:06 10° NNW 08:36:48 28° W 08:37:38 26° WSW
IRS-1D 3.5 08:35:07 10° NNE 08:40:14 89° ESE 08:45:26 10° SSW
SWAS 4.3 08:36:12 10° NNW 08:40:25 79° WSW 08:44:37 10° SSE
Cosmos 1633 Rocket 2.9 08:39:36 10° N 08:43:57 83° W 08:48:17 10° S
NOSS 2-2 (C) 4.2 08:43:42 10° NW 08:48:18 52° WSW 08:54:45 10° SSE
Cosmos 1680 Rocket 3.7 08:47:51 18° SW 08:51:42 54° WNW 08:56:55 10° NNE
Cosmos 2278 Rocket 2.9 08:47:10 10° NW 08:52:05 31° WSW 08:56:58 10° SSW
Cosmos 1420 Rocket 4.1 08:55:08 10° NNW 09:00:14 53° WSW 09:05:20 10° S
Iridium 51 3.7 08:59:11 10° S 09:02:33 76° W 09:05:54 10° N
Cosmos 1461 3.9 09:01:05 10° WNW 09:03:57 20° WSW 09:06:48 10° SSW
Cosmos 2056 Rocket 3.6 08:58:52 10° NNW 09:04:09 59° WSW 09:09:28 10° S
RESURS DK-1 4.4 09:04:22 10° W 09:06:30 14° NW 09:08:45 10° NNW
Gbstr 26 Del rocket 4.3 09:03:18 10° WNW 09:06:50 28° N 09:10:08 10° NE
CZ-2C R/B 3.0 09:04:25 10° N 09:09:18 44° WNW 09:14:11 10° SW
Cosmos 494 Rocket 4.1 09:04:12 10° SSW 09:09:21 81° ESE 09:14:31 10° NNE
Cosmos 1553 Rocket 4.2 09:03:52 10° NNW 09:09:56 51° W 09:15:51 10° SSW
SL-16 R/B 2.2 09:04:22 10° SSW 09:10:02 90° WNW 09:15:44 10° NNE
NOSS 3-1 (C) 4.3 09:04:07 10° NW 09:11:34 83° NE 09:20:35 10° SE
Cosmos 1674 3.1 09:09:06 10° S 09:12:27 56° E 09:15:50 10° NNE
PAYLOAD A 4.3 09:08:08 10° N 09:12:51 45° WNW 09:17:23 10° SW
Cosmos 1939 Rocket 3.9 09:11:47 10° NNE 09:15:25 44° E 09:19:02 10° S
Cosmos 1766 3.0 09:12:05 10° NNW 09:15:47 71° W 09:19:26 10° S
USA 308 3.1 09:12:47 10° SW 09:16:29 55° SE 09:20:19 10° ENE
Cosmos 1624 Rocket 4.3 09:11:31 10° NNW 09:16:30 46° WSW 09:21:24 10° S
Cosmos 1656 Rocket 4.1 09:11:11 10° NNW 09:16:35 66° ENE 09:21:58 10° SE
Cosmos 1340 3.4 09:16:09 10° NW 09:19:03 26° W 09:21:56 10° SSW
Cosmos 921 Rocket 3.6 09:16:51 10° SW 09:20:49 39° WNW 09:24:54 10° N
Cosmos 1975 3.9 09:18:53 10° NW 09:21:57 23° W 09:25:00 10° SW
Cosmos 1626 2.6 09:19:13 10° SW 09:22:14 33° WNW 09:25:17 10° N
KORONAS-FOTON 4.1 09:20:12 10° S 09:23:50 68° E 09:27:29 10° NNE
Cosmos 1515 Rocket 3.6 09:20:47 10° SSW 09:25:11 63° W 09:29:37 10° N
Envisat 4.3 09:26:03 10° NNW 09:30:00 23° WNW 09:33:56 10° WSW
Cosmos 1470 Rocket 3.9 09:25:52 10° NNW 09:30:01 42° W 09:34:10 10° SSW
ATLAS 5 CENTAUR R/B 2.2 09:25:07 10° NW 09:30:12 89° NE 09:36:29 10° SE
CBERS-1 4.0 09:25:16 10° NNE 09:30:23 78° WNW 09:35:28 10° SSW
Cosmos 1484 Rocket 2.6 09:27:27 10° N 09:31:02 68° WNW 09:34:35 10° SSW
ATLAS 3B R/B 3.6 09:25:53 10° NNW 09:33:40 65° NE 09:41:20 10° SE
